| time (UTC) | temp C | wind direction | speed KPH | gust KPH | rain 1hr cm | rain 24hr cm | rain mn cm | humidity % | barometer mb |
| 20260906233105 | 10 | 219 | 0.0 | 0.0 | 0.00 | 0.00 | 0.00 | 93 | 1025.1 |
| 20260906230052 | 10 | 219 | 0.0 | 0.0 | 0.00 | 0.00 | 0.00 | 92 | 1025.2 |
| 20260906223043 | 10 | 219 | 0.0 | 0.0 | 0.00 | 0.00 | 0.00 | 92 | 1025.3 |
| 20260906220145 | 11 | 219 | 0.0 | 0.0 | 0.00 | 0.00 | 0.00 | 93 | 1025.2 |
| 20260906214602 | 11 | 219 | 0.0 | 0.0 | 0.00 | 0.00 | 0.00 | 92 | 1025.1 |
| 20260906213045 | 11 | 219 | 0.0 | 0.0 | 0.00 | 0.00 | 0.00 | 91 | 1025.0 |
| 20260906211537 | 11 | 219 | 0.0 | 0.0 | 0.00 | 0.00 | 0.00 | 91 | 1025.0 |
| 20260906204615 | 12 | 219 | 0.0 | 0.0 | 0.00 | 0.00 | 0.00 | 91 | 1025.0 |
| 20260906203041 | 12 | 219 | 0.0 | 0.0 | 0.00 | 0.00 | 0.00 | 90 | 1024.8 |
| 20260906201605 | 12 | 219 | 0.0 | 3.2 | 0.00 | 0.00 | 0.00 | 91 | 1024.9 |
| 20260906194603 | 13 | 219 | 0.0 | 0.0 | 0.00 | 0.00 | 0.00 | 89 | 1024.7 |
| 20260906193045 | 14 | 219 | 0.0 | 0.0 | 0.00 | 0.00 | 0.00 | 88 | 1024.6 |
| 20260906191537 | 14 | 219 | 0.0 | 3.2 | 0.00 | 0.00 | 0.00 | 89 | 1024.6 |
| 20260906184554 | 15 | 219 | 0.0 | 0.0 | 0.00 | 0.00 | 0.00 | 84 | 1024.3 |
| 20260906181557 | 17 | 219 | 0.0 | 3.2 | 0.00 | 0.00 | 0.00 | 82 | 1023.9 |
| 20260906174603 | 17 | 219 | 1.6 | 4.8 | 0.00 | 0.00 | 0.00 | 81 | 1023.7 |
| 20260906171611 | 18 | 244 | 1.6 | 6.4 | 0.00 | 0.00 | 0.00 | 79 | 1023.6 |
| 20260906170036 | 18 | 188 | 3.2 | 6.4 | 0.00 | 0.00 | 0.00 | 78 | 1023.6 |
| 20260906163124 | 21 | 148 | 1.6 | 4.8 | 0.00 | 0.00 | 0.00 | 67 | 1023.4 |
| 20260906160058 | 23 | 200 | 1.6 | 8.0 | 0.00 | 0.00 | 0.00 | 60 | 1023.3 |
| 20260906153104 | 24 | 223 | 0.0 | 9.7 | 0.00 | 0.00 | 0.00 | 57 | 1023.2 |
| 20260906151602 | 23 | 300 | 3.2 | 16.1 | 0.00 | 0.00 | 0.00 | 57 | 1023.3 |
| 20260906144608 | 24 | 100 | 1.6 | 11.3 | 0.00 | 0.00 | 0.00 | 57 | 1023.1 |
| 20260906143104 | 24 | 292 | 3.2 | 14.5 | 0.00 | 0.00 | 0.00 | 57 | 1023.2 |
| 20260906140109 | 24 | 275 | 4.8 | 12.9 | 0.00 | 0.00 | 0.00 | 57 | 1023.4 |
| 20260906133104 | 24 | 236 | 3.2 | 14.5 | 0.00 | 0.00 | 0.00 | 61 | 1023.3 |
| 20260906124538 | 24 | 355 | 1.6 | 8.0 | 0.00 | 0.00 | 0.00 | 60 | 1023.4 |
| 20260906121606 | 24 | 219 | 3.2 | 11.3 | 0.00 | 0.00 | 0.00 | 60 | 1023.6 |
| 20260906120112 | 24 | 252 | 3.2 | 11.3 | 0.00 | 0.00 | 0.00 | 58 | 1023.6 |
| 20260906114549 | 24 | 206 | 4.8 | 12.9 | 0.00 | 0.00 | 0.00 | 59 | 1023.6 |
| 20260906111604 | 23 | 248 | 3.2 | 24.1 | 0.00 | 0.00 | 0.00 | 63 | 1023.5 |
| 20260906110054 | 23 | 203 | 1.6 | 14.5 | 0.00 | 0.00 | 0.00 | 63 | 1023.4 |
| 20260906103106 | 23 | 174 | 0.0 | 9.7 | 0.00 | 0.00 | 0.00 | 63 | 1023.5 |
| 20260906100041 | 23 | 92 | 1.6 | 9.7 | 0.00 | 0.00 | 0.00 | 68 | 1023.7 |
| 20260906093105 | 22 | 236 | 1.6 | 9.7 | 0.00 | 0.00 | 0.00 | 70 | 1023.6 |
| 20260906091548 | 22 | 301 | 1.6 | 9.7 | 0.00 | 0.00 | 0.00 | 69 | 1023.8 |
| 20260906084555 | 22 | 281 | 1.6 | 6.4 | 0.00 | 0.00 | 0.00 | 67 | 1023.8 |
| 20260906083057 | 22 | 259 | 0.0 | 4.8 | 0.00 | 0.00 | 0.00 | 67 | 1023.8 |
| 20260906081543 | 22 | 174 | 0.0 | 6.4 | 0.00 | 0.00 | 0.00 | 73 | 1023.9 |
| 20260906074609 | 20 | 266 | 1.6 | 8.0 | 0.00 | 0.03 | 0.00 | 75 | 1023.8 |
| 20260906071610 | 16 | 175 | 0.0 | 3.2 | 0.00 | 0.03 | 0.00 | 96 | 1023.6 |
| 20260906070046 | 15 | 175 | 0.0 | 3.2 | 0.00 | 0.03 | 0.00 | 96 | 1023.8 |
| 20260906064544 | 14 | 175 | 0.0 | 0.0 | 0.00 | 0.03 | 0.00 | 96 | 1023.7 |
| 20260906061551 | 11 | 175 | 0.0 | 0.0 | 0.00 | 0.03 | 0.00 | 95 | 1023.3 |
| 20260906054555 | 9 | 175 | 0.0 | 0.0 | 0.00 | 0.03 | 0.00 | 95 | 1023.3 |
| 20260906051610 | 8 | 175 | 0.0 | 0.0 | 0.00 | 0.03 | 0.00 | 94 | 1023.0 |
| 20260906050124 | 8 | 175 | 0.0 | 0.0 | 0.00 | 0.03 | 0.00 | 94 | 1022.9 |
| 20260906044551 | 8 | 175 | 0.0 | 0.0 | 0.00 | 0.03 | 0.00 | 93 | 1022.8 |
| 20260906041602 | 9 | 175 | 0.0 | 0.0 | 0.00 | 0.03 | 0.00 | 93 | 1022.5 |
| 20260906040046 | 9 | 175 | 0.0 | 0.0 | 0.00 | 0.03 | 0.00 | 94 | 1022.4 |
| 20260906033108 | 10 | 175 | 0.0 | 0.0 | 0.00 | 0.03 | 0.00 | 94 | 1022.3 |
| 20260906031606 | 10 | 175 | 0.0 | 0.0 | 0.00 | 0.03 | 0.00 | 94 | 1022.1 |
| 20260906030047 | 10 | 175 | 0.0 | 0.0 | 0.00 | 0.03 | 0.00 | 93 | 1021.9 |
| 20260906024544 | 10 | 175 | 0.0 | 0.0 | 0.00 | 0.03 | 0.00 | 94 | 1022.0 |
| 20260906021612 | 10 | 175 | 0.0 | 0.0 | 0.00 | 0.03 | 0.00 | 93 | 1021.9 |
| 20260906020059 | 10 | 175 | 0.0 | 0.0 | 0.00 | 0.03 | 0.00 | 93 | 1021.9 |
| 20260906013101 | 10 | 175 | 0.0 | 0.0 | 0.00 | 0.03 | 0.00 | 93 | 1021.9 |
| 20260906011558 | 10 | 175 | 0.0 | 0.0 | 0.00 | 0.03 | 0.00 | 92 | 1021.9 |
| 20260906004605 | 11 | 175 | 0.0 | 0.0 | 0.00 | 0.03 | 0.00 | 92 | 1021.7 |
| 20260906003040 | 12 | 175 | 0.0 | 0.0 | 0.00 | 0.03 | 0.00 | 93 | 1021.5 |
| 20260906000105 | 12 | 175 | 0.0 | 0.0 | 0.00 | 0.03 | 0.00 | 92 | 1021.5 |